Location: Deilingen
(48.1741°N, 8.7846°E)
Time: 08:47:01
(UTC+00:00)

Daily predictions for brighter satellites

Satellite Brightness Start Highest point End
(mag) Time Altitude Azimuth Time Altitude Azimuth Time Altitude Azimuth
Cosmos 1814 Rocket 4.4 17:03:44 10° S 17:08:44 45° ESE 17:13:43 10° NNE
ATLAS 3B R/B 4.1 17:02:48 10° NW 17:10:16 50° WSW 17:17:16 10° S
NOSS 7 (A) 4.4 17:08:48 10° NW 17:11:43 79° NE 17:14:49 10° SE
Cosmos 1125 Rocket 4.3 17:08:21 10° N 17:12:57 31° NE 17:17:31 10° ESE
IRS-1C 4.2 17:07:48 10° SSE 17:13:08 87° WSW 17:18:30 10° NNW
YAOGAN 1 2.8 17:16:29 10° SE 17:20:33 46° ENE 17:24:39 10° N
Cosmos 2123 Rocket 4.0 17:15:03 10° S 17:21:21 78° E 17:27:41 10° NNE
Cosmos 1900 4.5 17:17:34 10° SW 17:22:41 85° NW 17:27:45 10° NE
Okean 2 Rocket 3.5 17:18:45 10° N 17:22:52 38° ENE 17:26:57 10° SE
NOSS 3-3 (C) 4.4 17:18:24 10° S 17:23:00 34° ESE 17:28:18 10° NE
Spot 4 Rocket 4.3 17:20:57 10° SE 17:25:49 47° ENE 17:30:43 10° N
Okean 1 Rocket 3.6 17:22:17 10° N 17:26:22 35° ENE 17:30:23 10° SE
COSMOS 2428 2.7 17:22:47 10° NNW 17:28:31 64° ENE 17:34:11 10° SE
Cosmos 1980 4.3 17:26:53 10° NNW 17:32:06 36° NE 17:37:16 10° ESE
ARIANE 5 R/B 3.3 17:27:22 10° S 17:32:25 58° WSW 17:37:26 10° NNW
Sich 1 Rocket 4.1 17:28:09 10° N 17:32:27 39° ENE 17:36:43 10° SE
Cosmos 158 Rocket 3.8 17:31:53 10° SSW 17:36:42 71° ESE 17:41:34 10° NNE
Cosmos 2237 Rocket 2.8 17:32:30 10° NNW 17:37:44 37° NE 17:42:58 10° ESE
Aureole 3 Rocket 3.5 17:33:57 10° N 17:37:48 30° ENE 17:40:54 10° SE
ATLAS 5 CENTAUR R/B 2.4 17:35:02 10° NW 17:39:16 59° SW 17:44:31 10° SSE
SeaSat 1 3.3 17:34:39 10° SSE 17:39:27 55° WSW 17:44:17 10° NW
Cosmos 192 4.2 17:34:40 10° NNW 17:39:33 71° ENE 17:44:25 10° SSE
Cosmos 1378 Rocket 3.5 17:35:35 10° S 17:39:53 87° ESE 17:44:13 10° N
USA 234 4.4 17:34:21 10° SSE 17:40:36 46° SW 17:46:52 10° WNW
Resurs 01 Rocket 2.1 17:36:54 10° SE 17:40:55 37° ENE 17:44:58 10° N
SKYMED 2 3.5 17:38:57 10° NNE 17:43:20 86° ESE 17:47:40 10° SSW
GP-B 3.4 17:39:29 10° S 17:43:49 70° W 17:48:11 10° N
Cosmos 2219 Rocket 3.9 17:42:19 10° NW 17:47:22 36° WSW 17:52:23 10° S
COSMO-SKYMED 1 2.5 17:43:33 10° NNE 17:47:37 56° E 17:51:39 10° S
Cosmos 2228 4.3 17:46:03 10° NNE 17:48:59 18° ENE 17:49:16 18° ENE
Cosmos 2292 Rocket 4.0 17:46:42 10° SSW 17:49:27 40° WNW 17:52:19 10° N
PSLV R/B 3.4 17:46:39 10° SSE 17:50:43 60° ENE 17:54:46 10° N
NOSS 3-3 (A) 3.7 17:46:35 10° SSW 17:51:38 62° SE 17:57:36 10° NE
Cosmos 2322 3.9 17:47:02 10° NNW 17:52:45 79° WSW 17:58:27 10° SSE
Resurs 1-3 3.7 17:50:09 10° S 17:54:26 76° WSW 17:58:46 10° NNW
USA 306 1.0 17:51:45 10° WNW 17:54:35 77° NNE 17:55:03 47° ESE
Cosmos 2016 Rocket 4.4 17:48:36 10° NNW 17:54:47 69° W 18:01:02 10° S
Cosmos 1025 Rocket 2.9 17:53:56 10° S 17:58:12 75° E 18:02:32 10° NNE
SJ-7 4.0 17:54:48 10° SSE 17:58:29 85° ENE 18:02:12 10° NNW
Cosmos 2285 Rocket 4.0 17:53:18 10° NNW 17:59:43 64° ENE 18:06:03 10° SE
SL-16 R/B 3.5 17:56:41 10° N 18:00:54 21° NE 18:02:27 19° ENE
Cosmos 1375 Rocket 4.5 17:56:24 10° SSW 18:02:42 67° ESE 18:09:07 10° NE
Cosmos 2227 Rocket 3.4 18:00:00 10° SE 18:03:35 19° ESE 18:03:35 19° ESE
SJ-6B 2.8 18:05:12 15° SE 18:07:41 41° ENE 18:10:58 10° N
SPOT 5 3.8 18:08:20 25° E 18:09:39 28° ENE 18:13:54 10° N
NOSS 3-4 (A) 4.0 18:03:30 10° NW 18:09:54 53° NE 18:15:10 20° ESE
NOSS 3-4 (C) 4.0 18:03:46 10° NW 18:10:11 52° NE 18:15:23 20° ESE
Cosmos 2233 Rocket 4.3 18:04:32 10° NNW 18:10:45 70° W 18:17:01 10° S
CZ-2D R/B 4.0 18:08:31 10° S 18:12:20 57° WSW 18:16:16 10° NNW
Cosmos 1674 Rocket 4.1 18:10:08 10° SSW 18:14:27 59° WNW 18:18:50 10° N
Cosmos 1315 Rocket 4.4 18:13:13 10° NNW 18:16:42 35° W 18:20:10 10° SSW
Cosmos 1513 Rocket 4.5 18:12:28 10° N 18:18:42 63° ENE 18:24:58 10° SSE
Cosmos 1867 4.5 18:17:35 10° WSW 18:22:49 47° NW 18:27:56 11° NNE
CZ-4 R/B 3.4 18:28:09 14° NNE 18:28:09 14° NNE 18:28:51 10° N
ATLAS 2AS CENTAUR R/B 4.3 18:20:16 10° WNW 18:25:54 26° NNW 18:31:15 11° NE
CZ-4B R/B 4.3 18:26:45 24° NE 18:26:45 24° NE 18:30:19 10° N
Helios 1A Rocket 4.1 18:28:45 21° SSE 18:28:45 21° SSE 18:30:01 10° S
Lacrosse 5 rocket 2.3 18:23:52 10° W 18:27:04 32° NNW 18:28:21 25° NNE
Atlas Centaur 2 4.4 18:23:10 10° SW 18:27:27 16° S 18:30:59 11° SE
Meteor 1-31 Rocket 4.3 18:32:59 19° NNE 18:32:59 19° NNE 18:34:13 10° N
CZ-4C R/B 2.2 18:28:02 10° SW 18:32:18 62° NW 18:36:09 19° NNE
IRAS Rocket 4.2 18:28:40 10° SSE 18:34:17 89° WSW 18:39:57 10° NNW
CARTOSAT-1 4.4 18:30:23 10° S 18:34:27 50° W 18:38:34 10° NNW
CRYOSAT 2 4.3 18:33:00 10° N 18:37:56 89° W 18:42:48 10° S
Tiangong 0.7 18:37:01 10° S 18:37:06 10° S 18:37:06 10° S
USA 267 4.0 18:41:48 23° NE 18:45:31 44° N 18:51:38 10° W
CSL-04 Debris 4.2 18:44:38 39° SE 18:46:23 56° ENE 18:51:43 10° N
Cosmos 1464 Rocket 3.9 18:40:06 10° N 18:46:28 70° ENE 18:52:46 10° SSE
ERS-1 Rocket 4.3 18:48:48 24° NNE 18:48:48 24° NNE 18:51:18 10° N
Cosmos 2297 Rocket 2.1 18:42:41 10° SSW 18:48:21 89° WNW 18:52:37 18° NNE
CSL-04 Rocket 3.5 18:47:26 38° SE 18:49:19 63° ENE 18:54:32 10° N
Cosmos 1570 Rocket 3.9 18:44:02 10° SSW 18:49:19 82° ESE 18:52:48 22° NNE
Cosmos 2344 3.8 18:43:24 10° S 18:50:38 38° ESE 18:51:12 38° ESE
BREEZE-M DEB (TANK) 4.3 18:46:59 10° WNW 18:51:01 70° SSW 18:56:52 27° SE
Cosmos 1455 Rocket 3.4 18:47:46 10° NNW 18:52:01 62° W 18:56:15 10° S
Cosmos 1975 Rocket 3.7 18:47:44 10° S 18:50:38 40° SSE 18:50:38 40° SSE
DNEPR-1 R/B 4.0 18:49:02 10° NNW 18:53:47 58° NE 18:54:13 56° ENE
PAYLOAD B 4.3 19:05:27 58° ENE 19:05:27 58° ENE 19:10:48 10° N
Cosmos 2208 Rocket 3.8 19:01:17 10° SSW 19:06:30 83° ESE 19:07:29 60° NE
Terra 3.7 19:11:53 18° N 19:11:53 18° N 19:13:12 10° N
NOSS 3-3 (C) 4.4 19:08:20 10° WSW 19:13:33 52° NW 19:16:44 27° NNE
Resurs 01 Rocket 3.7 19:13:41 10° SSW 19:17:21 26° W 19:21:04 10° NW
Cosmos 2263 Rocket 4.5 19:16:26 10° S 19:16:38 11° S 19:16:38 11° S
Cosmos 2237 Rocket 3.2 19:16:31 10° NW 19:21:53 44° WSW 19:25:52 17° S
Cosmos 44 Rocket 3.9 19:17:44 10° SW 19:21:20 50° SSW 19:21:20 50° SSW
Cosmos 773 Rocket 4.2 19:18:38 10° SSW 19:23:53 69° WNW 19:25:06 51° N
Cosmos 2228 4.0 19:22:13 10° NNW 19:25:36 43° WNW 19:25:36 43° WNW
Orbus 7S? 4.2 19:22:15 10° NW 19:28:58 63° WSW 19:28:58 63° WSW
Cosmos 2150 Rocket 4.4 19:28:42 10° NNW 19:33:45 56° WSW 19:33:58 55° WSW
Cosmos 2298 Rocket 4.4 19:29:18 10° NNW 19:34:30 59° WSW 19:34:42 59° WSW
SL-16 R/B 2.8 19:40:07 10° NNW 19:44:20 52° NNW 19:44:20 52° NNW
Cosmos 2227 Rocket 3.0 19:41:40 10° SW 19:45:30 44° SW 19:45:30 44° SW
SPOT 5 3.9 19:47:22 42° W 19:47:22 42° W 19:52:07 10° NNW
BREEZE-M DEB (TANK) 4.1 19:57:35 10° W 20:10:45 65° WSW 20:10:45 65° WSW
ATLAS 2AS CENTAUR R/B 4.3 20:13:53 10° NW 20:18:40 23° N 20:18:40 23° N
CZ-4C R/B 4.1 20:17:52 10° WNW 20:21:06 22° NNW 20:21:06 22° NNW
USA 267 4.2 20:29:08 39° NNW 20:29:08 39° NNW 20:33:54 10° WNW
Cosmos 2297 Rocket 4.4 20:28:58 10° W 20:33:11 21° NW 20:34:29 19° NNW
